DECAYED

STARLINK-31673, 59262 (Decayed)

Orbit data source: Space-Track

STARLINK-31673, 59262 was a payload satellite owned by SpaceX/Seattle (US) in LEO that was launched on Tue, 19 Mar 2024 UTC via an FALCON 9 launch vehicle from the Air Force Western Test Range (AFWTR). Payload-class satellites include a variety of spacecraft equipped with specific instruments for various scientific and technological missions. These include communications satellites like Starlink; space stations such as the ISS; scientific satellites like the Hubble; Earth observation satellites from companies like Planet Labs, Umbra, and HawkEye 360; GPS; miniature CubeSats for education and research; and military/defense satellites.

Not visible in the next 10 days
Identifier
59262, 2024-050J
Orbit
Decayed
Country
Flag of USUS
Related business
Manufacturer
SpaceX/Seattle
Mission
Decayed Commercial Communications
Bus & Motor
STARLINK V2M, Unknown motor
Mass
730 kg wet, ~700 kg dry
Launch date (UTC)
2024-03-19 (2 years ago)
Launch vehicle
FALCON 9
Launch site
Air Force Western Test Range (AFWTR)
Object type
Payload
Rocket body
Debris
Shape & HBR
Box + 2 Pan, 17.7 m
Radar Cross Section
33.884 m², Large (>1 m²)

Expand to show TLE details & history
Last TLE update: 1 year ago

TLE from 1 year ago
0 STARLINK-31673
1 59262U 24050J   25182.58722286  .12017177  12299-4  17979-2 0  9991
2 59262  53.1244 249.0155 0009338 322.8057 186.7061 16.33455564 73518
Epoch: 2025-07-01T14:05Z
TLE epoch observation values (Epoch: 2025-07-01T14:05:36.055Z)
Latitude
24.02114°
Longitude
-81.68002°
Altitude
190.233 km
Speed
7.792 km/s
True Right ascension
03h 18m 24s
True Declination
23° 52' 57"
Sunlit
Object was in daylight at epoch
Visualization orbit readout
Latitude
Unknown
Longitude
Unknown
Altitude
Unknown
Speed
Unknown
Apparent Right ascension
Unknown
Apparent Declination
Unknown
Sunlit
N/A
Visualization observer readout
Local Sidereal Time
21:24:45
Azimuth
Unknown
Elevation
Unknown
Doppler factor
Unknown
Orbital elements
Apogee altitude
189.67 km
Perigee altitude
177.416 km
Semi-major axis
6,561.68 km
Eccentricity
0.00093
Inclination
53.1244°
RAAN
249.0155°
Arg. of periapsis
322.8057°
True anomaly
186.69362°
Mean anomaly
186.7061°
Eccentric anomaly
186.69986°
Mean motion
4.08339 °/min
Orbital period
88.16 mins
BSTAR
0.0017979
Loading maneuver chart data...
Computing Atmospheric mass density...
Loading historical data...
Loading historical data...
Loading historical data...
Loading historical data...
Loading historical data...
Loading historical data...
Loading historical data...

Documentation

Showing up to 5 results
|